This is the latest recevied weather packets stored in our database for station/object W6MAF. If no packets are shown the sender has not sent any weather packets the latest 10 day(s).
| Time | Temp. | Humidity | Pressure | Rain* | Wind** | Luminosity | Snow |
|---|---|---|---|---|---|---|---|
| 1788223793 | 25.56° C | 3% | - | 0 mm | 7.6 m/s, 181° | - | - |
| 1788223495 | 25.56° C | 3% | - | 0 mm | 7.15 m/s, 170° | - | - |
| 1788223197 | 25.56° C | 3% | - | 0 mm | 8.05 m/s, 188° | - | - |
| 1788222900 | 25.56° C | 3% | - | 0 mm | 9.83 m/s, 204° | - | - |
| 1788222300 | 26.11° C | 4% | - | 0 mm | 5.81 m/s, 160° | - | - |
| 1788222002 | 26.11° C | 5% | - | 0 mm | 9.39 m/s, 176° | - | - |
| 1788221704 | 26.11° C | 5% | - | 0 mm | 8.05 m/s, 195° | - | - |
| 1788221407 | 26.11° C | 5% | - | 0 mm | 7.15 m/s, 186° | - | - |
| 1788221109 | 26.11° C | 4% | - | 0 mm | 11.18 m/s, 180° | - | - |
| 1788220811 | 26.11° C | 5% | - | 0 mm | 7.15 m/s, 177° | - | - |
| 1788220510 | 26.11° C | 5% | - | 0 mm | 8.49 m/s, 174° | - | - |
| 1788220212 | 26.67° C | 5% | - | 0 mm | 6.26 m/s, 177° | - | - |
| 1788219914 | 26.11° C | 5% | - | 0 mm | 5.81 m/s, 173° | - | - |
| 1788219318 | 26.67° C | 4% | - | 0 mm | 7.15 m/s, 173° | - | - |
| 1788219020 | 26.67° C | 4% | - | 0 mm | 9.83 m/s, 176° | - | - |
| 1788218719 | 26.67° C | 4% | - | 0 mm | 8.49 m/s, 173° | - | - |
| 1788218422 | 26.67° C | 4% | - | 0 mm | 8.49 m/s, 169° | - | - |
| 1788218124 | 26.67° C | 4% | - | 0 mm | 7.6 m/s, 166° | - | - |
| 1788217827 | 26.67° C | 4% | - | 0 mm | 7.15 m/s, 166° | - | - |
| 1788217529 | 26.67° C | 4% | - | 0 mm | 9.83 m/s, 184° | - | - |
| 1788217231 | 26.67° C | 4% | - | 0 mm | 9.83 m/s, 183° | - | - |
| 1788216930 | 26.67° C | 4% | - | 0 mm | 8.05 m/s, 174° | - | - |
| 1788216632 | 26.67° C | 5% | - | 0 mm | 6.71 m/s, 204° | - | - |
| 1788216334 | 26.67° C | 5% | - | 0 mm | 7.15 m/s, 197° | - | - |
| 1788216037 | 26.67° C | 5% | - | 0 mm | 6.71 m/s, 179° | - | - |
* Rain latest hour (hover to see other rain measurements)
** Current wind speed in m/s (hover to see current wind gust speed)